| time (UTC) | temp F | wind direction | speed MPH | gust MPH | rain 1hr in | rain 24hr in | rain mn in | humidity % | barometer mb |
| 20260507182030 | 61 | 272 | 2.0 | 6.0 | 0.00 | 0.10 | 0.05 | 41 | 1008.0 |
| 20260507180532 | 61 | 71 | 3.0 | 9.0 | 0.00 | 0.10 | 0.05 | 41 | 1008.0 |
| 20260507175046 | 61 | 207 | 3.0 | 7.0 | 0.00 | 0.18 | 0.05 | 39 | 1008.3 |
| 20260507173545 | 61 | 141 | 5.0 | 11.0 | 0.00 | 0.18 | 0.05 | 37 | 1008.7 |
| 20260507172037 | 61 | 232 | 2.0 | 10.0 | 0.00 | 0.18 | 0.05 | 41 | 1008.8 |
| 20260507170545 | 61 | 190 | 4.0 | 11.0 | 0.00 | 0.18 | 0.05 | 41 | 1009.1 |
| 20260507165031 | 60 | 151 | 2.0 | 7.0 | 0.00 | 0.22 | 0.05 | 43 | 1009.2 |
| 20260507163532 | 60 | 167 | 3.0 | 7.0 | 0.00 | 0.22 | 0.05 | 41 | 1009.5 |
| 20260507162031 | 59 | 335 | 4.0 | 7.0 | 0.00 | 0.22 | 0.05 | 41 | 1009.4 |
| 20260507160532 | 59 | 120 | 1.0 | 5.0 | 0.00 | 0.22 | 0.05 | 45 | 1009.7 |
| 20260507155039 | 59 | 128 | 3.0 | 8.0 | 0.00 | 0.33 | 0.05 | 44 | 1009.8 |
| 20260507153535 | 59 | 68 | 2.0 | 6.0 | 0.00 | 0.33 | 0.05 | 45 | 1010.0 |
| 20260507152031 | 58 | 274 | 3.0 | 7.0 | 0.00 | 0.33 | 0.05 | 43 | 1010.4 |
| 20260507150527 | 58 | 119 | 1.0 | 6.0 | 0.00 | 0.33 | 0.05 | 47 | 1010.6 |
| 20260507145038 | 58 | 315 | 1.0 | 6.0 | 0.00 | 0.38 | 0.05 | 46 | 1010.9 |
| 20260507143535 | 58 | 141 | 2.0 | 7.0 | 0.00 | 0.38 | 0.05 | 48 | 1010.7 |
| 20260507142030 | 57 | 161 | 2.0 | 5.0 | 0.00 | 0.38 | 0.05 | 54 | 1010.7 |
| 20260507140532 | 56 | 298 | 2.0 | 7.0 | 0.00 | 0.38 | 0.05 | 52 | 1010.9 |
| 20260507135046 | 55 | 223 | 3.0 | 6.0 | 0.00 | 0.41 | 0.05 | 56 | 1011.0 |
| 20260507133544 | 55 | 182 | 2.0 | 6.0 | 0.00 | 0.41 | 0.05 | 59 | 1011.0 |
| 20260507132034 | 54 | 155 | 2.0 | 5.0 | 0.00 | 0.41 | 0.05 | 57 | 1011.0 |
| 20260507130536 | 53 | 3 | 1.0 | 4.0 | 0.00 | 0.41 | 0.05 | 63 | 1011.1 |
| 20260507125031 | 52 | 125 | 1.0 | 5.0 | 0.00 | 0.41 | 0.05 | 68 | 1011.0 |
| 20260507123528 | 50 | 167 | 3.0 | 5.0 | 0.00 | 0.41 | 0.05 | 66 | 1010.9 |
| 20260507122043 | 48 | 183 | 1.0 | 2.0 | 0.00 | 0.41 | 0.05 | 74 | 1011.0 |
| 20260507120544 | 48 | 98 | 1.0 | 5.0 | 0.00 | 0.41 | 0.05 | 76 | 1010.9 |
| 20260507115037 | 47 | 255 | 1.0 | 3.0 | 0.00 | 0.41 | 0.05 | 81 | 1011.0 |
| 20260507113532 | 46 | 101 | 0.0 | 2.0 | 0.00 | 0.41 | 0.05 | 87 | 1010.9 |
| 20260507112032 | 45 | 98 | 0.0 | 0.0 | 0.00 | 0.41 | 0.05 | 89 | 1010.7 |
| 20260507110532 | 46 | 98 | 0.0 | 2.0 | 0.00 | 0.41 | 0.05 | 88 | 1010.6 |
| 20260507105042 | 46 | 122 | 1.0 | 4.0 | 0.00 | 0.41 | 0.05 | 91 | 1010.5 |
| 20260507103556 | 46 | 360 | 0.0 | 4.0 | 0.00 | 0.41 | 0.05 | 93 | 1010.1 |
| 20260507102048 | 46 | 99 | 0.0 | 0.0 | 0.00 | 0.41 | 0.05 | 93 | 1009.7 |
| 20260507100549 | 46 | 99 | 0.0 | 0.0 | 0.00 | 0.41 | 0.05 | 93 | 1009.4 |
| 20260507095045 | 46 | 99 | 0.0 | 0.0 | 0.00 | 0.41 | 0.05 | 93 | 1009.4 |
| 20260507093545 | 46 | 99 | 0.0 | 0.0 | 0.00 | 0.41 | 0.05 | 93 | 1009.2 |
| 20260507092038 | 46 | 99 | 0.0 | 0.0 | 0.00 | 0.41 | 0.05 | 93 | 1009.2 |
| 20260507090540 | 46 | 99 | 0.0 | 0.0 | 0.00 | 0.41 | 0.05 | 92 | 1009.1 |
| 20260507085035 | 47 | 99 | 0.0 | 0.0 | 0.00 | 0.41 | 0.05 | 92 | 1009.0 |
| 20260507083532 | 47 | 99 | 0.0 | 0.0 | 0.00 | 0.41 | 0.05 | 92 | 1009.0 |
| 20260507082029 | 48 | 100 | 0.0 | 0.0 | 0.01 | 0.41 | 0.05 | 92 | 1009.4 |
| 20260507080529 | 48 | 96 | 0.0 | 0.0 | 0.01 | 0.41 | 0.05 | 92 | 1009.6 |
| 20260507075059 | 48 | 96 | 0.0 | 0.0 | 0.02 | 0.41 | 0.05 | 92 | 1009.6 |
| 20260507073609 | 48 | 96 | 0.0 | 0.0 | 0.02 | 0.41 | 0.05 | 92 | 1009.7 |
| 20260507072105 | 48 | 96 | 0.0 | 0.0 | 0.01 | 0.40 | 0.04 | 92 | 1009.7 |
| 20260507070545 | 48 | 96 | 0.0 | 0.0 | 0.02 | 0.40 | 0.04 | 92 | 1009.9 |
| 20260507065053 | 48 | 96 | 0.0 | 0.0 | 0.01 | 0.39 | 0.03 | 91 | 1010.0 |
| 20260507063553 | 48 | 96 | 0.0 | 0.0 | 0.02 | 0.39 | 0.03 | 90 | 1009.7 |
| 20260507062050 | 49 | 96 | 0.0 | 0.0 | 0.03 | 0.39 | 0.03 | 90 | 1009.8 |
| 20260507060554 | 49 | 96 | 0.0 | 0.0 | 0.02 | 0.38 | 0.02 | 89 | 1009.5 |
| 20260507055043 | 50 | 96 | 0.0 | 0.0 | 0.02 | 0.38 | 0.02 | 87 | 1009.9 |
| 20260507053534 | 50 | 103 | 0.0 | 2.0 | 0.01 | 0.37 | 0.01 | 84 | 1009.5 |
| 20260507052034 | 51 | 218 | 0.0 | 3.0 | 0.00 | 0.36 | 0.00 | 82 | 1009.5 |
| 20260507050532 | 51 | 187 | 0.0 | 2.0 | 0.00 | 0.36 | 0.00 | 82 | 1009.3 |
| 20260507045106 | 51 | 113 | 0.0 | 0.0 | 0.00 | 0.36 | 0.00 | 82 | 1009.0 |
| 20260507043546 | 51 | 113 | 1.0 | 3.0 | 0.00 | 0.36 | 0.00 | 82 | 1009.0 |
| 20260507042039 | 51 | 188 | 0.0 | 2.0 | 0.00 | 0.36 | 0.00 | 84 | 1009.1 |
| 20260507040608 | 51 | 146 | 0.0 | 0.0 | 0.00 | 0.36 | 0.00 | 86 | 1009.6 |
| 20260507035053 | 51 | 146 | 0.0 | 0.0 | 0.00 | 0.36 | 0.36 | 86 | 1009.4 |
| 20260507033552 | 52 | 146 | 0.0 | 0.0 | 0.00 | 0.36 | 0.36 | 86 | 1009.1 |
| 20260507032041 | 52 | 146 | 0.0 | 0.0 | 0.00 | 0.36 | 0.36 | 86 | 1009.1 |
| 20260507030542 | 52 | 146 | 0.0 | 0.0 | 0.00 | 0.36 | 0.36 | 85 | 1009.1 |
| 20260507025039 | 52 | 146 | 0.0 | 2.0 | 0.00 | 0.36 | 0.36 | 84 | 1009.1 |
| 20260507023538 | 53 | 134 | 0.0 | 2.0 | 0.00 | 0.36 | 0.36 | 84 | 1009.2 |
| 20260507022035 | 53 | 91 | 0.0 | 2.0 | 0.00 | 0.36 | 0.36 | 85 | 1009.6 |
| 20260507020540 | 53 | 86 | 0.0 | 4.0 | 0.00 | 0.36 | 0.36 | 86 | 1009.6 |
| 20260507015035 | 54 | 22 | 0.0 | 0.0 | 0.00 | 0.36 | 0.36 | 86 | 1009.5 |
| 20260507013533 | 54 | 67 | 0.0 | 3.0 | 0.00 | 0.36 | 0.36 | 84 | 1009.5 |
| 20260507012033 | 54 | 126 | 1.0 | 3.0 | 0.00 | 0.36 | 0.36 | 84 | 1009.3 |
| 20260507010541 | 55 | 93 | 1.0 | 3.0 | 0.00 | 0.36 | 0.36 | 84 | 1008.9 |
| 20260507005030 | 56 | 342 | 0.0 | 3.0 | 0.00 | 0.36 | 0.36 | 86 | 1008.6 |
| 20260507003605 | 56 | 197 | 0.0 | 3.0 | 0.00 | 0.36 | 0.36 | 87 | 1008.4 |
| 20260507002101 | 57 | 141 | 0.0 | 3.0 | 0.00 | 0.36 | 0.36 | 87 | 1007.9 |
| 20260507000537 | 58 | 119 | 2.0 | 4.0 | 0.00 | 0.36 | 0.36 | 86 | 1007.6 |
| 20260506235048 | 61 | 141 | 2.0 | 4.0 | 0.00 | 0.36 | 0.36 | 91 | 1007.2 |
| 20260506233607 | 62 | 272 | 0.0 | 2.0 | 0.00 | 0.36 | 0.36 | 94 | 1006.3 |
| 20260506232048 | 62 | 272 | 0.0 | 1.0 | 0.00 | 0.36 | 0.36 | 94 | 1006.2 |
| 20260506230546 | 63 | 272 | 0.0 | 2.0 | 0.00 | 0.36 | 0.36 | 94 | 1006.2 |
| 20260506225100 | 63 | 297 | 0.0 | 1.0 | 0.00 | 0.36 | 0.36 | 94 | 1006.1 |
| 20260506223535 | 63 | 337 | 1.0 | 5.0 | 0.00 | 0.36 | 0.36 | 95 | 1006.2 |
| 20260506222036 | 63 | 266 | 1.0 | 6.0 | 0.00 | 0.36 | 0.36 | 95 | 1006.0 |
| 20260506220535 | 63 | 62 | 1.0 | 2.0 | 0.00 | 0.36 | 0.36 | 95 | 1005.9 |
| 20260506215050 | 63 | 180 | 0.0 | 2.0 | 0.00 | 0.36 | 0.36 | 95 | 1005.8 |
| 20260506213605 | 62 | 300 | 0.0 | 0.0 | 0.00 | 0.36 | 0.36 | 95 | 1005.7 |
| 20260506212044 | 62 | 268 | 0.0 | 0.0 | 0.00 | 0.36 | 0.36 | 95 | 1005.5 |
| 20260506210529 | 62 | 263 | 2.0 | 3.0 | 0.00 | 0.36 | 0.36 | 95 | 1005.5 |
| 20260506205038 | 62 | 265 | 1.0 | 2.0 | 0.00 | 0.36 | 0.36 | 95 | 1005.5 |
| 20260506203534 | 61 | 215 | 2.0 | 4.0 | 0.00 | 0.36 | 0.36 | 94 | 1005.4 |
| 20260506202029 | 61 | 284 | 0.0 | 2.0 | 0.00 | 0.36 | 0.36 | 94 | 1005.5 |
| 20260506200530 | 61 | 251 | 1.0 | 4.0 | 0.00 | 0.36 | 0.36 | 94 | 1005.5 |
| 20260506195041 | 61 | 141 | 2.0 | 5.0 | 0.01 | 0.36 | 0.36 | 94 | 1005.6 |
| 20260506193541 | 61 | 315 | 1.0 | 4.0 | 0.01 | 0.36 | 0.36 | 94 | 1005.7 |
| 20260506192039 | 61 | 290 | 1.0 | 6.0 | 0.03 | 0.36 | 0.36 | 94 | 1005.7 |
| 20260506190537 | 61 | 240 | 1.0 | 7.0 | 0.05 | 0.36 | 0.36 | 94 | 1005.9 |
| 20260506185053 | 62 | 289 | 2.0 | 5.0 | 0.05 | 0.35 | 0.35 | 94 | 1006.1 |
| 20260506183550 | 62 | 224 | 2.0 | 5.0 | 0.07 | 0.35 | 0.35 | 94 | 1006.2 |